Regional Weather Roundup
Issued by NWS

Home | Current Version | Previous Version | Text Only | Print | Product List | Glossary On
Versions: 1 2 3 4 5 6 7 8 9 10 11 12 13 14 15 16 17 18 19 20 21 22 23 24 25 26 27 28 29 30 31 32 33 34 35 36 37 38 39 40 41 42 43 44 45 46 47 48 49 50
000
ASUS43 KMPX 200701
RWRMN
WEATHER ROUNDUP FOR MINNESOTA
NATIONAL WEATHER SERVICE TWIN CITIES/CHANHASSEN MN
200 AM CDT SUN APR 20 2014


NOTE: "FAIR" INDICATES FEW OR NO CLOUDS BELOW 12,000 FEET WITH NO
SIGNIFICANT WEATHER AND/OR OBSTRUCTIONS TO VISIBILITY. N/A MEANS
CURRENT SKY AND/OR WEATHER CONDITIONS ARE NOT AVAILABLE.

MNZ060>063-068>070-200800-
   Twin Cities Metro

CITY           SKY/WX    TMP DP  RH WIND       PRES   REMARKS
TWIN CITIES    LGT RAIN  50  50 100 CALM      30.02S
ST PAUL        LGT RAIN  52  52 100 NE3       30.03R VSB 1/2
CRYSTAL        CLOUDY    50  49  96 CALM      30.01R FOG
BLAINE         CLOUDY    54  52  94 CALM      30.01S FOG
EDEN PRAIRIE   RAIN      53  51  93 W3        30.02R FOG
LAKEVILLE      CLOUDY    52  52 100 CALM      30.02S FOG
SOUTH ST PAUL  CLOUDY    57  55  94 CALM      30.02R FOG
LAKE ELMO      LGT RAIN  52  52 100 W3        30.04R VSB 1/4
$$
MNZ001>005-007-008-013>017-022>024-027-028-200800-
   Northwest Minnesota

CITY           SKY/WX    TMP DP  RH WIND       PRES   REMARKS
BEMIDJI        CLEAR     37  33  85 W3        30.01S
HALLOCK        CLOUDY    34  32  93 CALM      30.00S
ROSEAU         CLEAR     37  30  75 W6        30.00R
WARROAD        CLEAR     36  30  80 W5        30.00R
THIEF RVR FALL CLEAR     36  30  80 CALM      30.02S
CROOKSTON      CLEAR     39  34  81 CALM      30.03S
FOSSTON        CLEAR     32  28  86 CALM      30.03R
DETROIT LAKES  CLEAR     41  36  81 CALM      30.04R
MOORHEAD       CLEAR     41  39  93 E7        30.03S
PARK RAPIDS    CLEAR     39  35  86 CALM      30.01R
$$
MNZ006-009>011-018-025>026-200800-
   North Central Minnesota

CITY           SKY/WX    TMP DP  RH WIND       PRES   REMARKS
BAUDETTE       CLEAR     37  33  85 CALM      29.99R
FLAG ISLAND    CLEAR     36  30  80 W9        29.97R
INTL FALLS     CLEAR     37  33  85 W6        29.98R
WASKISH        CLEAR     37  34  87 W6        30.01R
BIG FORK       CLEAR     32  28  86 CALM      30.00R
LONGVILLE      CLEAR     41  36  81 NW3       30.01R
GRAND RAPIDS   CLEAR     36  30  80 CALM      30.00R
CRANE LAKE     CLEAR     27  25  93 CALM      29.99R
ORR            CLEAR     39  34  81 CALM      29.96R
COOK           CLEAR     36  34  93 CALM      29.99R
$$
MNZ012-019>021-037-200800-
   Northeast Minnesota

CITY           SKY/WX    TMP DP  RH WIND       PRES   REMARKS
DULUTH         CLEAR     32  28  85 CALM      29.99S
ELY            CLEAR     32  30  93 CALM      29.98R
HIBBING        CLEAR     30  27  88 CALM      29.99R
EVELETH        CLEAR     32  32 100 CALM      30.00R
DULUTH HARBOR  CLEAR     30  28  93 CALM      30.03F FOG
TWO HARBORS    CLEAR     27  21  80 CALM      29.99S
SILVER BAY     CLEAR     27  27 100 CALM      29.99R
GRAND MARAIS     N/A     30  28  92 NW3       30.01S
G MARAIS ARPRT CLEAR     27  25  93 W3        29.99S
$$
MNZ029>031-032-039>041-046>048-054>057-064-200800-
   West Central Minnesota

CITY           SKY/WX    TMP DP  RH WIND       PRES   REMARKS
FERGUS FALLS   CLEAR     45  34  65 NE6       30.00R
WHEATON        PTCLDY    45  39  81 N7        30.04R
MORRIS         PTCLDY    45  32  61 W3        29.99R
ALEXANDRIA     PTCLDY    45  33  63 N7        30.01R
ELBOW LAKE     FAIR      46  37  70 NE8       30.01R
WADENA         CLEAR     37  30  75 CALM      30.02R
GLENWOOD       PTCLDY    46  36  66 SW3       30.01S
APPLETON       PTCLDY    41  36  81 CALM      29.99S
BENSON         PTCLDY    37  34  87 S5        30.00S
ORTONVILLE     PTCLDY    45  28  53 NW5       30.00R
MADISON        PTCLDY    46  34  61 SW5       30.00S
WILLMAR        FAIR      39  37  93 SE3       30.02S
$$
MNZ033>034-036-042>043-049>051-058-059-200800-
   Central Minnesota

CITY           SKY/WX    TMP DP  RH WIND       PRES   REMARKS
ST CLOUD       PTCLDY    37  35  92 S3        30.00F FOG
SAUK CENTRE    FAIR      38  34  86 CALM      30.00S
PAYNESVILLE    PTCLDY    37  35  92 CALM      30.01F
AITKIN         CLEAR     39  34  81 CALM      29.98R HAZE
PINE RIVER     CLEAR     34  28  80 CALM      30.05R
BRAINERD       CLEAR     39  31  72 MISG      30.01R
STAPLES        CLEAR     41  32  70 NW5       30.02R
LONG PRAIRIE   FAIR      37  36  93 CALM      30.00S
LITTLE FALLS   CLEAR     37  34  87 CALM      30.00S
LITCHFIELD       N/A     45  45 100 CALM      30.02S FOG
BUFFALO        PTCLDY    43  40  91 CALM      30.03S FOG
MAPLE LAKE     PTCLDY    40  40  99 CALM      30.02S FOG
$$
MNZ037-044-045-052-053-200800-
   East Central Minnesota

CITY           SKY/WX    TMP DP  RH WIND       PRES   REMARKS
PRINCETON      FOG       36  34  93 CALM      30.02S VSB<1/4
MORA           CLEAR     32  30  93 CALM      30.02S
CAMBRIDGE      PTCLDY    37  30  75 CALM      30.00S HAZE
RUSH CITY      PTCLDY    33  32  94 CALM      30.02R
HINCKLEY       FAIR      32  32 100 CALM      30.01S FOG
CLOQUET        CLEAR     30  28  93 CALM      30.00S FOG
MCGREGOR       CLEAR     41  37  87 S5        29.99S
$$
MNZ071>073-080-081-089-090-097-098-200800-
   Southwest Minnesota

CITY           SKY/WX    TMP DP  RH WIND       PRES   REMARKS
MONTEVIDEO     CLEAR     46  37  71 SW5       30.01S
GRANITE FALLS  CLEAR     42  37  82 S7        30.02F
CANBY          CLEAR     44  32  63 CALM      30.01S
MARSHALL       PTCLDY    46  34  61 SW10      30.01S
REDWOOD FALLS  MOCLDY    52  45  77 S7        30.01S
OLIVIA         PTCLDY    50  45  81 S5        30.01S
PIPESTONE      CLOUDY    52  34  50 SE3       30.01S
WINDOM         MOCLDY    54  46  76 SE5       30.03S
WORTHINGTON    MOCLDY    52  43  71 E7        30.04F
JACKSON        CLOUDY    52  45  76 CALM      30.03S
TRACY          MOCLDY    55  43  62 CALM      30.02S
SLAYTON        CLOUDY    53  43  69 CALM      30.03S
$$
MNZ065>067-074>077-082>085-091>093-200800-
   South Central Minnesota

CITY           SKY/WX    TMP DP  RH WIND       PRES   REMARKS
MANKATO        CLOUDY    54  48  82 CALM      30.02S
NEW ULM        LGT RAIN  54  50  87 CALM      30.02F
ST JAMES       CLOUDY    52  46  82 NW3       30.03S
FAIRMONT       CLOUDY    54  45  71 N5        30.04R
GLENCOE        LGT RAIN  52  47  83 CALM      30.01F
FARIBAULT      CLOUDY    55  52  88 CALM      30.03R HAZE
OWATONNA       LGT RAIN  54  52  94 SE5       30.02S
WASECA         CLOUDY    54  50  87 NE5       30.03F FOG
ALBERT LEA     CLOUDY    63  46  55 SW6       30.02S
$$
MNZ078>079-086>088-094>096-200800-
   Southeast Minnesota

CITY           SKY/WX    TMP DP  RH WIND       PRES   REMARKS
ROCHESTER      CLOUDY    58  46  64 S14       30.04R
RED WING       CLOUDY    52  50  93 CALM      30.02R
STANTON        CLOUDY    52  50  93 CALM      30.01S FOG
DODGE CENTER   CLOUDY    61  46  59 SW7       30.03F
WINONA           N/A    N/A N/A N/A MISG        N/A
AUSTIN         CLOUDY    59  45  58 S8        30.03S
PRESTON        CLOUDY    60  44  56 S16G22    30.05S
$$
ABBREVIATIONS USED IN REMARKS
   TC - TEMPERATURES IN CELSIUS
  WCI - WIND CHILL INDEX
   HX - HEAT INDEX
  VSB - VISIBILITY
$$


USA.gov is the U.S. government's official web portal to all federal, state and local government web resources and services.